Regional Weather Roundup
Issued by NWS

Home | Current Version | Previous Version | Graphics & Text | Print | Product List | Glossary On
Versions: 1 2 3 4 5 6 7 8 9 10 11 12 13 14 15 16 17 18 19 20 21 22 23 24 25 26 27 28 29 30 31 32 33 34 35 36 37 38 39 40 41 42 43 44 45 46 47 48 49 50
585
ASUS44 KLIX 310005
RWRLA
LOUISIANA WEATHER ROUNDUP
NATIONAL WEATHER SERVICE NEW ORLEANS LA
600 PM CST FRI JAN 30 2015

NOTE: "FAIR" INDICATES FEW OR NO CLOUDS BELOW 12,000 FEET WITH NO
      SIGNIFICANT WEATHER AND/OR OBSTRUCTIONS TO VISIBILITY.
      SKY/WX - SKY CONDITION AND SIGNIFICANT WEATHER.
      TMP - AIR TEMPERATURE.    DP   - DEWPOINT TEMPERATURE.
      RH  - RELATIVE HUMIDITY.  PRES - PRESSURE.
      HX  - HEAT INDEX.         WCI  - WIND CHILL INDEX.

*  THESE STATIONS ARE NOT NWS OR FAA STATIONS AND ARE NOT UNDER
   NWS QUALITY CONTROL.

LAZ040-048-061>063-065-066-069-310100-
SOUTHEAST LOUISIANA

CITY           SKY/WX    TMP DP  RH WIND       PRES   REMARKS
N.O. AUDUBON   NOT AVBL
N.O. INTL ARPT MOCLDY    54  33  45 N3        30.32S
6HR MIN TEMP:  53; 6HR MAX TEMP:  58;

N.O. LAKEFRONT MOCLDY    55  47  74 NW6       30.33R
6HR MIN TEMP:  55; 6HR MAX TEMP:  60;

N.O. DOWNTOWN* NOT AVBL
SLIDELL        PTCLDY    52  37  56 CALM      30.32R
6HR MIN TEMP:  52; 6HR MAX TEMP:  62;

BATON ROUGE    MOCLDY    55  30  38 CALM      30.34R
6HR MIN TEMP:  54; 6HR MAX TEMP:  63;

BOOTHVILLE     PTCLDY    52  40  63 N5        30.32S
6HR MIN TEMP:  52; 6HR MAX TEMP:  54;

BELLE CHASSE   MOCLDY    55  32  41 CALM      30.32R
6HR MIN TEMP:  54; 6HR MAX TEMP:  60;

BOGALUSA*        N/A     50  37  59 N5        30.35R
6HR MIN TEMP:  50; 6HR MAX TEMP:  62;

GALLIANO*      PTCLDY    52  40  64 NW5       30.32S
6HR MIN TEMP:  52; 6HR MAX TEMP:  62;

NEW ROADS*     FAIR      53  37  55 NW7       30.35R
6HR MIN TEMP:  53; 6HR MAX TEMP:  60;

GONZALES*      FAIR      55  33  43 CALM      30.33R
6HR MIN TEMP:  54; 6HR MAX TEMP:  63;

HAMMOND*       MOCLDY    52  34  50 CALM      30.35R
HOUMA*         CLEAR     54  34  47 NE6       30.32S
PORT FOURCHON* PTCLDY    57  39  51 NE12      30.34S

$$

LAZ041-044-053-054-310100-
SOUTHWEST LOUISIANA

CITY           SKY/WX    TMP DP  RH WIND       PRES   REMARKS
LAKE CHARLES   MOCLDY    54  36  50 NE7       30.32S
6HR MIN TEMP:  53; 6HR MAX TEMP:  62;

LAFAYETTE      MOCLDY    53  35  50 N7        30.33R
6HR MIN TEMP:  53; 6HR MAX TEMP:  62;

PATTERSON      MOCLDY    55  36  47 NE6       30.33S
6HR MIN TEMP:  55; 6HR MAX TEMP:  61;

SALT POINT       N/A     54  38  54 CALM      30.31R
6HR MIN TEMP:  54; 6HR MAX TEMP:  62;

NEW IBERIA     MOCLDY    56  34  43 N6        30.33R
6HR MIN TEMP:  54; 6HR MAX TEMP:  63;

CHENAULT AIRPK NOT AVBL

$$

LAZ027-028-310100-
CENTRAL LOUISIANA

CITY           SKY/WX    TMP DP  RH WIND       PRES   REMARKS
FORT POLK      PTCLDY    51  37  60 NE3       30.34S
6HR MIN TEMP:  49; 6HR MAX TEMP:  58;

ALEXANDRIA INT MOCLDY    52  31  44 NE6       30.35R
6HR MIN TEMP:  52; 6HR MAX TEMP:  60;

ALEXANDRIA     MOCLDY    48  34  58 CALM      30.37S
6HR MIN TEMP:  48; 6HR MAX TEMP:  59;


$$

LAZ001-002-310100-
NORTHWEST LOUISIANA

CITY           SKY/WX    TMP DP  RH WIND       PRES   REMARKS
SHREVEPORT     CLOUDY    52  31  44 CALM      30.37R
6HR MIN TEMP:  51; 6HR MAX TEMP:  59;

BARKSDALE AFB  MOCLDY    52  28  39 E2        30.38R
6HR MIN TEMP:  51; 6HR MAX TEMP:  58;

DTN SHREVEPORT MOCLDY    54  26  34 E3        30.38R
6HR MIN TEMP:  49; 6HR MAX TEMP:  58;


$$

LAZ014-016-310100-
NORTHEAST LOUISIANA

CITY           SKY/WX    TMP DP  RH WIND       PRES   REMARKS
MONROE         PTCLDY    48  32  53 NE9       30.41R
6HR MIN TEMP:  48; 6HR MAX TEMP:  54;

TALLULAH       PTCLDY    48  33  56 N7        30.40R
6HR MIN TEMP:  48; 6HR MAX TEMP:  56;


$$




USA.gov is the U.S. government's official web portal to all federal, state and local government web resources and services.